Time,TemperatureF,DewpointF,PressureIn,WindDirection,WindDirectionDegrees,WindSpeedMPH,WindSpeedGustMPH,Humidity,HourlyPrecipIn,Conditions,Clouds,dailyrainin,SoftwareType,DateUTC
2013-06-05 00:01:00,71.7,65.6,30.11,West,270,1.0,-999.0,81,0.00,,,0.44,Wunderground v.1.15,2013-06-05 04:01:00,
2013-06-05 00:02:00,72.0,65.8,30.11,WSW,256,1.0,1.0,81,0.00,,,0.00,Wunderground v.1.15,2013-06-05 04:02:00,
2013-06-05 00:04:00,71.9,65.8,30.11,SSW,200,1.0,1.0,81,0.00,,,0.00,Wunderground v.1.15,2013-06-05 04:04:00,
2013-06-05 00:06:00,71.9,65.8,30.10,West,259,1.0,4.0,81,0.00,,,0.00,Wunderground v.1.15,2013-06-05 04:06:00,
2013-06-05 00:11:00,71.7,65.6,30.11,West,270,1.0,-999.0,81,0.00,,,0.44,Wunderground v.1.15,2013-06-05 04:11:00,
2013-06-05 00:12:00,71.9,65.8,30.11,SSE,149,1.0,3.0,81,0.00,,,0.00,Wunderground v.1.15,2013-06-05 04:12:00,
2013-06-05 00:14:00,71.9,65.8,30.11,WSW,256,1.0,3.0,81,0.00,,,0.00,Wunderground v.1.15,2013-06-05 04:14:00,
2013-06-05 00:16:00,71.7,65.6,30.11,West,270,1.0,-999.0,81,0.00,,,0.44,Wunderground v.1.15,2013-06-05 04:16:00,
2013-06-05 00:20:00,71.9,65.8,30.11,West,276,1.0,1.0,81,0.00,,,0.00,Wunderground v.1.15,2013-06-05 04:20:00,
2013-06-05 00:21:00,71.7,65.6,30.11,West,270,1.0,-999.0,81,0.00,,,0.44,Wunderground v.1.15,2013-06-05 04:21:00,
2013-06-05 00:26:00,71.8,65.7,30.11,West,265,1.0,2.0,81,0.00,,,0.00,Wunderground v.1.15,2013-06-05 04:26:00,
2013-06-05 00:31:00,71.7,65.6,30.11,West,270,1.0,-999.0,81,0.00,,,0.44,Wunderground v.1.15,2013-06-05 04:31:00,
2013-06-05 00:32:00,71.7,65.6,30.11,WSW,251,1.0,4.0,81,0.00,,,0.00,Wunderground v.1.15,2013-06-05 04:32:00,
2013-06-05 00:36:00,71.7,65.6,30.11,West,270,1.0,-999.0,81,0.00,,,0.44,Wunderground v.1.15,2013-06-05 04:36:00,
2013-06-05 00:38:00,71.7,65.6,30.11,SSE,157,1.0,4.0,81,0.00,,,0.00,Wunderground v.1.15,2013-06-05 04:38:00,
2013-06-05 00:41:00,71.7,65.6,30.11,West,270,1.0,-999.0,81,0.00,,,0.44,Wunderground v.1.15,2013-06-05 04:41:00,
2013-06-05 00:44:00,71.7,65.6,30.11,West,266,1.0,3.0,81,0.00,,,0.00,Wunderground v.1.15,2013-06-05 04:44:00,
2013-06-05 00:46:00,71.5,65.7,30.11,West,270,1.0,-999.0,82,0.00,,,0.44,Wunderground v.1.15,2013-06-05 04:46:00,
2013-06-05 00:50:00,71.6,65.8,30.11,SSE,154,1.0,2.0,82,0.00,,,0.00,Wunderground v.1.15,2013-06-05 04:50:00,
2013-06-05 00:51:00,71.5,65.7,30.11,West,270,1.0,-999.0,82,0.00,,,0.44,Wunderground v.1.15,2013-06-05 04:51:00,
2013-06-05 00:56:00,71.6,65.8,30.11,West,269,0.0,2.0,82,0.00,,,0.00,Wunderground v.1.15,2013-06-05 04:56:00,
2013-06-05 01:01:00,71.5,65.7,30.11,West,270,1.0,-999.0,82,0.00,,,0.44,Wunderground v.1.15,2013-06-05 05:01:00,
2013-06-05 01:02:00,71.5,65.4,30.11,WSW,242,1.0,3.0,81,0.00,,,0.00,Wunderground v.1.15,2013-06-05 05:02:00,
2013-06-05 01:06:00,71.5,65.7,30.11,West,270,1.0,-999.0,82,0.00,,,0.44,Wunderground v.1.15,2013-06-05 05:06:00,
2013-06-05 01:08:00,71.5,65.4,30.11,SE,131,1.0,3.0,81,0.00,,,0.00,Wunderground v.1.15,2013-06-05 05:08:00,
2013-06-05 01:11:00,71.5,65.7,30.11,West,270,1.0,-999.0,82,0.00,,,0.44,Wunderground v.1.15,2013-06-05 05:11:00,
2013-06-05 01:14:00,71.5,65.4,30.11,SSE,151,0.0,3.0,81,0.00,,,0.00,Wunderground v.1.15,2013-06-05 05:14:00,
2013-06-05 01:16:00,71.6,65.8,30.11,SSE,158,0.0,-999.0,82,0.00,,,0.44,Wunderground v.1.15,2013-06-05 05:16:00,
2013-06-05 01:20:00,71.6,65.5,30.11,SSE,151,0.0,0.0,81,0.00,,,0.00,Wunderground v.1.15,2013-06-05 05:20:00,
2013-06-05 01:21:00,71.6,65.8,30.11,SSE,158,0.0,-999.0,82,0.00,,,0.44,Wunderground v.1.15,2013-06-05 05:21:00,
2013-06-05 01:26:00,71.5,65.4,30.11,SSE,151,0.0,0.0,81,0.00,,,0.00,Wunderground v.1.15,2013-06-05 05:26:00,
2013-06-05 01:31:00,71.6,65.8,30.11,SSE,158,0.0,-999.0,82,0.00,,,0.44,Wunderground v.1.15,2013-06-05 05:31:00,
2013-06-05 01:32:00,71.5,65.7,30.11,WSW,257,0.0,0.0,82,0.00,,,0.00,Wunderground v.1.15,2013-06-05 05:32:00,
2013-06-05 01:36:00,71.6,65.8,30.11,SSE,158,0.0,-999.0,82,0.00,,,0.44,Wunderground v.1.15,2013-06-05 05:36:00,
2013-06-05 01:38:00,71.5,65.7,30.10,SSE,164,0.0,2.0,82,0.00,,,0.00,Wunderground v.1.15,2013-06-05 05:38:00,
2013-06-05 01:41:00,71.6,65.8,30.11,SSE,158,0.0,-999.0,82,0.00,,,0.44,Wunderground v.1.15,2013-06-05 05:41:00,
2013-06-05 01:44:00,71.4,65.6,30.10,South,178,0.0,1.0,82,0.00,,,0.00,Wunderground v.1.15,2013-06-05 05:44:00,
2013-06-05 01:46:00,71.2,65.8,30.10,South,180,0.0,-999.0,83,0.00,,,0.44,Wunderground v.1.15,2013-06-05 05:46:00,
2013-06-05 01:50:00,71.4,65.6,30.10,South,173,0.0,1.0,82,0.00,,,0.00,Wunderground v.1.15,2013-06-05 05:50:00,
2013-06-05 01:51:00,71.2,65.8,30.10,South,180,0.0,-999.0,83,0.00,,,0.44,Wunderground v.1.15,2013-06-05 05:51:00,
2013-06-05 01:56:00,71.3,65.9,30.10,South,186,0.0,1.0,83,0.00,,,0.00,Wunderground v.1.15,2013-06-05 05:56:00,
2013-06-05 02:01:00,71.2,65.8,30.10,South,180,0.0,-999.0,83,0.00,,,0.44,Wunderground v.1.15,2013-06-05 06:01:00,
2013-06-05 02:02:00,71.2,65.8,30.10,South,186,0.0,0.0,83,0.00,,,0.00,Wunderground v.1.15,2013-06-05 06:02:00,
2013-06-05 02:06:00,71.2,65.8,30.10,South,180,0.0,-999.0,83,0.00,,,0.44,Wunderground v.1.15,2013-06-05 06:06:00,
2013-06-05 02:08:00,71.0,65.6,30.10,South,186,0.0,0.0,83,0.00,,,0.00,Wunderground v.1.15,2013-06-05 06:08:00,
2013-06-05 02:11:00,71.2,65.8,30.10,South,180,0.0,-999.0,83,0.00,,,0.44,Wunderground v.1.15,2013-06-05 06:11:00,
2013-06-05 02:14:00,70.8,65.7,30.10,South,186,0.0,0.0,84,0.00,,,0.00,Wunderground v.1.15,2013-06-05 06:14:00,
2013-06-05 02:16:00,70.2,65.5,30.09,South,180,0.0,-999.0,85,0.00,,,0.44,Wunderground v.1.15,2013-06-05 06:16:00,
2013-06-05 02:20:00,70.6,65.5,30.10,South,186,0.0,0.0,84,0.00,,,0.00,Wunderground v.1.15,2013-06-05 06:20:00,
2013-06-05 02:21:00,70.2,65.5,30.09,South,180,0.0,-999.0,85,0.00,,,0.44,Wunderground v.1.15,2013-06-05 06:21:00,
2013-06-05 02:26:00,70.4,65.3,30.10,South,186,0.0,0.0,84,0.00,,,0.00,Wunderground v.1.15,2013-06-05 06:26:00,
2013-06-05 02:31:00,70.2,65.5,30.09,South,180,0.0,-999.0,85,0.00,,,0.44,Wunderground v.1.15,2013-06-05 06:31:00,
2013-06-05 02:32:00,70.2,65.5,30.09,South,186,0.0,0.0,85,0.00,,,0.00,Wunderground v.1.15,2013-06-05 06:32:00,
2013-06-05 02:36:00,70.2,65.5,30.09,South,180,0.0,-999.0,85,0.00,,,0.44,Wunderground v.1.15,2013-06-05 06:36:00,
2013-06-05 02:38:00,70.2,65.5,30.09,SSE,157,0.0,1.0,85,0.00,,,0.00,Wunderground v.1.15,2013-06-05 06:38:00,
2013-06-05 02:41:00,70.2,65.5,30.09,South,180,0.0,-999.0,85,0.00,,,0.44,Wunderground v.1.15,2013-06-05 06:41:00,
2013-06-05 02:44:00,70.1,65.4,30.09,SSE,157,0.0,0.0,85,0.00,,,0.00,Wunderground v.1.15,2013-06-05 06:44:00,
2013-06-05 02:46:00,69.9,64.8,30.08,SSE,158,0.0,-999.0,84,0.00,,,0.44,Wunderground v.1.15,2013-06-05 06:46:00,
2013-06-05 02:50:00,70.1,65.0,30.09,WSW,242,0.0,0.0,84,0.00,,,0.00,Wunderground v.1.15,2013-06-05 06:50:00,
2013-06-05 02:51:00,69.9,64.8,30.08,SSE,158,0.0,-999.0,84,0.00,,,0.44,Wunderground v.1.15,2013-06-05 06:51:00,
2013-06-05 02:56:00,70.0,65.3,30.08,SE,132,0.0,0.0,85,0.00,,,0.00,Wunderground v.1.15,2013-06-05 06:56:00,
2013-06-05 03:01:00,69.9,64.8,30.08,SSE,158,0.0,-999.0,84,0.00,,,0.44,Wunderground v.1.15,2013-06-05 07:01:00,
2013-06-05 03:02:00,69.9,65.2,30.08,SE,132,0.0,0.0,85,0.00,,,0.00,Wunderground v.1.15,2013-06-05 07:02:00,
2013-06-05 03:06:00,69.9,64.8,30.08,SSE,158,0.0,-999.0,84,0.00,,,0.44,Wunderground v.1.15,2013-06-05 07:06:00,
2013-06-05 03:08:00,69.8,65.1,30.08,SE,132,0.0,0.0,85,0.00,,,0.00,Wunderground v.1.15,2013-06-05 07:08:00,
2013-06-05 03:11:00,69.9,64.8,30.08,SSE,158,0.0,-999.0,84,0.00,,,0.44,Wunderground v.1.15,2013-06-05 07:11:00,
2013-06-05 03:14:00,69.8,64.7,30.08,SE,132,0.0,0.0,84,0.00,,,0.00,Wunderground v.1.15,2013-06-05 07:14:00,
2013-06-05 03:16:00,69.8,64.7,30.07,SE,135,0.0,-999.0,84,0.00,,,0.44,Wunderground v.1.15,2013-06-05 07:16:00,
2013-06-05 03:20:00,69.8,64.7,30.08,SE,132,0.0,0.0,84,0.00,,,0.00,Wunderground v.1.15,2013-06-05 07:20:00,
2013-06-05 03:21:00,69.8,64.7,30.07,SE,135,0.0,-999.0,84,0.00,,,0.44,Wunderground v.1.15,2013-06-05 07:21:00,
2013-06-05 03:26:00,69.8,64.7,30.08,SW,229,0.0,2.0,84,0.00,,,0.00,Wunderground v.1.15,2013-06-05 07:26:00,
2013-06-05 03:31:00,69.8,64.7,30.07,SE,135,0.0,-999.0,84,0.00,,,0.44,Wunderground v.1.15,2013-06-05 07:31:00,
2013-06-05 03:32:00,69.7,64.6,30.08,South,178,0.0,0.0,84,0.00,,,0.00,Wunderground v.1.15,2013-06-05 07:32:00,
2013-06-05 03:36:00,69.8,64.7,30.07,SE,135,0.0,-999.0,84,0.00,,,0.44,Wunderground v.1.15,2013-06-05 07:36:00,
2013-06-05 03:38:00,69.6,64.5,30.08,South,178,0.0,0.0,84,0.00,,,0.00,Wunderground v.1.15,2013-06-05 07:38:00,
2013-06-05 03:41:00,69.8,64.7,30.07,SE,135,0.0,-999.0,84,0.00,,,0.44,Wunderground v.1.15,2013-06-05 07:41:00,
2013-06-05 03:44:00,69.5,64.5,30.08,SW,227,0.0,2.0,84,0.00,,,0.00,Wunderground v.1.15,2013-06-05 07:44:00,
2013-06-05 03:46:00,69.3,64.6,30.08,SW,225,0.0,-999.0,85,0.00,,,0.44,Wunderground v.1.15,2013-06-05 07:46:00,
2013-06-05 03:50:00,69.4,64.7,30.08,SW,220,0.0,0.0,85,0.00,,,0.00,Wunderground v.1.15,2013-06-05 07:50:00,
2013-06-05 03:51:00,69.3,64.6,30.08,SW,225,0.0,-999.0,85,0.00,,,0.44,Wunderground v.1.15,2013-06-05 07:51:00,
2013-06-05 03:56:00,69.4,64.7,30.08,SW,220,0.0,0.0,85,0.00,,,0.00,Wunderground v.1.15,2013-06-05 07:56:00,
2013-06-05 04:01:00,69.3,64.6,30.08,SW,225,0.0,-999.0,85,0.00,,,0.44,Wunderground v.1.15,2013-06-05 08:01:00,
2013-06-05 04:02:00,69.3,64.6,30.08,SW,227,0.0,1.0,85,0.00,,,0.00,Wunderground v.1.15,2013-06-05 08:02:00,
2013-06-05 04:06:00,69.3,64.6,30.08,SW,225,0.0,-999.0,85,0.00,,,0.44,Wunderground v.1.15,2013-06-05 08:06:00,
2013-06-05 04:08:00,69.2,64.5,30.08,SW,235,0.0,1.0,85,0.00,,,0.00,Wunderground v.1.15,2013-06-05 08:08:00,
2013-06-05 04:11:00,69.3,64.6,30.08,SW,225,0.0,-999.0,85,0.00,,,0.44,Wunderground v.1.15,2013-06-05 08:11:00,
2013-06-05 04:14:00,69.0,64.3,30.09,SW,228,0.0,1.0,85,0.00,,,0.00,Wunderground v.1.15,2013-06-05 08:14:00,
2013-06-05 04:16:00,68.8,64.4,30.09,SW,225,0.0,-999.0,86,0.00,,,0.44,Wunderground v.1.15,2013-06-05 08:16:00,
2013-06-05 04:20:00,68.9,64.2,30.09,SW,229,0.0,0.0,85,0.00,,,0.00,Wunderground v.1.15,2013-06-05 08:20:00,
2013-06-05 04:21:00,68.8,64.4,30.09,SW,225,0.0,-999.0,86,0.00,,,0.44,Wunderground v.1.15,2013-06-05 08:21:00,
2013-06-05 04:26:00,68.8,64.1,30.09,West,274,0.0,1.0,85,0.00,,,0.00,Wunderground v.1.15,2013-06-05 08:26:00,
2013-06-05 04:31:00,68.8,64.4,30.09,SW,225,0.0,-999.0,86,0.00,,,0.44,Wunderground v.1.15,2013-06-05 08:31:00,
2013-06-05 04:32:00,68.8,64.4,30.09,NW,322,0.0,0.0,86,0.00,,,0.00,Wunderground v.1.15,2013-06-05 08:32:00,
2013-06-05 04:36:00,68.8,64.4,30.09,SW,225,0.0,-999.0,86,0.00,,,0.44,Wunderground v.1.15,2013-06-05 08:36:00,
2013-06-05 04:38:00,68.8,64.4,30.09,WNW,283,0.0,0.0,86,0.00,,,0.00,Wunderground v.1.15,2013-06-05 08:38:00,
2013-06-05 04:41:00,68.8,64.4,30.09,SW,225,0.0,-999.0,86,0.00,,,0.44,Wunderground v.1.15,2013-06-05 08:41:00,
2013-06-05 04:44:00,68.8,64.4,30.09,SSW,194,0.0,1.0,86,0.00,,,0.00,Wunderground v.1.15,2013-06-05 08:44:00,
2013-06-05 04:46:00,68.5,64.1,30.08,SW,225,0.0,-999.0,86,0.00,,,0.44,Wunderground v.1.15,2013-06-05 08:46:00,
2013-06-05 04:50:00,68.7,64.3,30.09,SW,233,1.0,1.0,86,0.00,,,0.00,Wunderground v.1.15,2013-06-05 08:50:00,
2013-06-05 04:51:00,68.5,64.1,30.08,SW,225,0.0,-999.0,86,0.00,,,0.44,Wunderground v.1.15,2013-06-05 08:51:00,
2013-06-05 04:56:00,68.6,64.2,30.08,SW,233,0.0,1.0,86,0.00,,,0.00,Wunderground v.1.15,2013-06-05 08:56:00,
2013-06-05 05:01:00,68.5,64.1,30.08,SW,225,0.0,-999.0,86,0.00,,,0.44,Wunderground v.1.15,2013-06-05 09:01:00,
2013-06-05 05:02:00,68.5,64.1,30.08,SW,218,0.0,0.0,86,0.00,,,0.00,Wunderground v.1.15,2013-06-05 09:02:00,
2013-06-05 05:06:00,68.5,64.1,30.08,SW,225,0.0,-999.0,86,0.00,,,0.44,Wunderground v.1.15,2013-06-05 09:06:00,
2013-06-05 05:08:00,68.3,63.9,30.08,SW,218,0.0,0.0,86,0.00,,,0.00,Wunderground v.1.15,2013-06-05 09:08:00,
2013-06-05 05:11:00,68.5,64.1,30.08,SW,225,0.0,-999.0,86,0.00,,,0.44,Wunderground v.1.15,2013-06-05 09:11:00,
2013-06-05 05:14:00,68.2,63.9,30.09,SW,218,0.0,0.0,86,0.00,,,0.00,Wunderground v.1.15,2013-06-05 09:14:00,
2013-06-05 05:16:00,68.3,64.3,30.09,SW,225,0.0,-999.0,87,0.00,,,0.44,Wunderground v.1.15,2013-06-05 09:16:00,
2013-06-05 05:20:00,68.2,63.9,30.09,SW,218,0.0,0.0,86,0.00,,,0.00,Wunderground v.1.15,2013-06-05 09:20:00,
2013-06-05 05:21:00,68.3,64.3,30.09,SW,225,0.0,-999.0,87,0.00,,,0.44,Wunderground v.1.15,2013-06-05 09:21:00,
2013-06-05 05:26:00,68.2,64.2,30.09,SW,218,0.0,0.0,87,0.00,,,0.00,Wunderground v.1.15,2013-06-05 09:26:00,
2013-06-05 05:31:00,68.3,64.3,30.09,SW,225,0.0,-999.0,87,0.00,,,0.44,Wunderground v.1.15,2013-06-05 09:31:00,
2013-06-05 05:32:00,68.3,64.3,30.09,SW,218,0.0,0.0,87,0.00,,,0.00,Wunderground v.1.15,2013-06-05 09:32:00,
2013-06-05 05:36:00,68.3,64.3,30.09,SW,225,0.0,-999.0,87,0.00,,,0.44,Wunderground v.1.15,2013-06-05 09:36:00,
2013-06-05 05:38:00,68.4,64.4,30.09,SSW,200,0.0,0.0,87,0.00,,,0.00,Wunderground v.1.15,2013-06-05 09:38:00,
2013-06-05 05:41:00,68.3,64.3,30.09,SW,225,0.0,-999.0,87,0.00,,,0.44,Wunderground v.1.15,2013-06-05 09:41:00,
2013-06-05 05:44:00,68.5,64.5,30.10,SSW,200,0.0,0.0,87,0.00,,,0.00,Wunderground v.1.15,2013-06-05 09:44:00,
2013-06-05 05:46:00,68.9,64.9,30.10,SSW,203,0.0,-999.0,87,0.00,,,0.44,Wunderground v.1.15,2013-06-05 09:46:00,
2013-06-05 05:50:00,68.6,64.6,30.10,SSW,200,0.0,0.0,87,0.00,,,0.00,Wunderground v.1.15,2013-06-05 09:50:00,
2013-06-05 05:51:00,68.9,64.9,30.10,SSW,203,0.0,-999.0,87,0.00,,,0.44,Wunderground v.1.15,2013-06-05 09:51:00,
2013-06-05 05:56:00,68.8,64.8,30.10,South,173,0.0,0.0,87,0.00,,,0.00,Wunderground v.1.15,2013-06-05 09:56:00,
2013-06-05 06:01:00,68.9,64.9,30.10,SSW,203,0.0,-999.0,87,0.00,,,0.44,Wunderground v.1.15,2013-06-05 10:01:00,
2013-06-05 06:02:00,68.8,64.8,30.09,South,170,0.0,1.0,87,0.00,,,0.00,Wunderground v.1.15,2013-06-05 10:02:00,
2013-06-05 06:06:00,68.9,64.9,30.10,SSW,203,0.0,-999.0,87,0.00,,,0.44,Wunderground v.1.15,2013-06-05 10:06:00,
2013-06-05 06:08:00,69.0,65.0,30.09,SSW,210,0.0,2.0,87,0.00,,,0.00,Wunderground v.1.15,2013-06-05 10:08:00,
2013-06-05 06:11:00,68.9,64.9,30.10,SSW,203,0.0,-999.0,87,0.00,,,0.44,Wunderground v.1.15,2013-06-05 10:11:00,
2013-06-05 06:14:00,69.1,65.1,30.10,WSW,249,0.0,3.0,87,0.00,,,0.00,Wunderground v.1.15,2013-06-05 10:14:00,
2013-06-05 06:16:00,69.3,65.3,30.11,SW,225,0.0,-999.0,87,0.00,,,0.44,Wunderground v.1.15,2013-06-05 10:16:00,
2013-06-05 06:20:00,69.2,65.2,30.10,WSW,240,0.0,0.0,87,0.00,,,0.00,Wunderground v.1.15,2013-06-05 10:20:00,
2013-06-05 06:21:00,69.3,65.3,30.11,SW,225,0.0,-999.0,87,0.00,,,0.44,Wunderground v.1.15,2013-06-05 10:21:00,
2013-06-05 06:26:00,69.2,65.2,30.10,SW,235,0.0,0.0,87,0.00,,,0.00,Wunderground v.1.15,2013-06-05 10:26:00,
2013-06-05 06:31:00,69.3,65.3,30.11,SW,225,0.0,-999.0,87,0.00,,,0.44,Wunderground v.1.15,2013-06-05 10:31:00,
2013-06-05 06:32:00,69.3,65.3,30.10,SW,236,0.0,1.0,87,0.00,,,0.00,Wunderground v.1.15,2013-06-05 10:32:00,
2013-06-05 06:36:00,69.3,65.3,30.11,SW,225,0.0,-999.0,87,0.00,,,0.44,Wunderground v.1.15,2013-06-05 10:36:00,
2013-06-05 06:38:00,69.5,65.5,30.11,SW,222,0.0,1.0,87,0.00,,,0.00,Wunderground v.1.15,2013-06-05 10:38:00,
2013-06-05 06:41:00,69.3,65.3,30.11,SW,225,0.0,-999.0,87,0.00,,,0.44,Wunderground v.1.15,2013-06-05 10:41:00,
2013-06-05 06:44:00,69.5,65.5,30.11,West,272,0.0,1.0,87,0.00,,,0.00,Wunderground v.1.15,2013-06-05 10:44:00,
2013-06-05 06:46:00,69.8,65.8,30.12,West,270,0.0,-999.0,87,0.00,,,0.44,Wunderground v.1.15,2013-06-05 10:46:00,
2013-06-05 06:50:00,69.7,65.7,30.11,West,272,0.0,0.0,87,0.00,,,0.00,Wunderground v.1.15,2013-06-05 10:50:00,
2013-06-05 06:51:00,69.8,65.8,30.12,West,270,0.0,-999.0,87,0.00,,,0.44,Wunderground v.1.15,2013-06-05 10:51:00,
2013-06-05 06:56:00,69.7,65.7,30.12,West,268,0.0,1.0,87,0.00,,,0.00,Wunderground v.1.15,2013-06-05 10:56:00,
2013-06-05 07:01:00,69.8,65.8,30.12,West,270,0.0,-999.0,87,0.00,,,0.44,Wunderground v.1.15,2013-06-05 11:01:00,
2013-06-05 07:02:00,69.8,65.8,30.12,West,267,0.0,0.0,87,0.00,,,0.00,Wunderground v.1.15,2013-06-05 11:02:00,
2013-06-05 07:06:00,69.8,65.8,30.12,West,270,0.0,-999.0,87,0.00,,,0.44,Wunderground v.1.15,2013-06-05 11:06:00,
2013-06-05 07:08:00,69.9,65.9,30.12,West,262,0.0,2.0,87,0.00,,,0.00,Wunderground v.1.15,2013-06-05 11:08:00,
2013-06-05 07:11:00,69.8,65.8,30.12,West,270,0.0,-999.0,87,0.00,,,0.44,Wunderground v.1.15,2013-06-05 11:11:00,
2013-06-05 07:14:00,70.0,66.0,30.12,West,271,1.0,3.0,87,0.00,,,0.00,Wunderground v.1.15,2013-06-05 11:14:00,
2013-06-05 07:16:00,70.2,66.1,30.12,West,270,0.0,-999.0,87,0.00,,,0.44,Wunderground v.1.15,2013-06-05 11:16:00,
2013-06-05 07:20:00,70.0,66.0,30.13,South,180,0.0,0.0,87,0.00,,,0.00,Wunderground v.1.15,2013-06-05 11:20:00,
2013-06-05 07:21:00,70.2,66.1,30.12,West,270,0.0,-999.0,87,0.00,,,0.44,Wunderground v.1.15,2013-06-05 11:21:00,
2013-06-05 07:26:00,70.2,66.1,30.12,South,180,0.0,0.0,87,0.00,,,0.00,Wunderground v.1.15,2013-06-05 11:26:00,
2013-06-05 07:31:00,70.2,66.1,30.12,West,270,0.0,-999.0,87,0.00,,,0.44,Wunderground v.1.15,2013-06-05 11:31:00,
2013-06-05 07:32:00,70.2,66.1,30.12,South,185,0.0,0.0,87,0.00,,,0.00,Wunderground v.1.15,2013-06-05 11:32:00,
2013-06-05 07:36:00,70.2,66.1,30.12,West,270,0.0,-999.0,87,0.00,,,0.44,Wunderground v.1.15,2013-06-05 11:36:00,
2013-06-05 07:38:00,70.4,66.3,30.12,South,183,1.0,1.0,87,0.00,,,0.00,Wunderground v.1.15,2013-06-05 11:38:00,
2013-06-05 07:41:00,70.2,66.1,30.12,West,270,0.0,-999.0,87,0.00,,,0.44,Wunderground v.1.15,2013-06-05 11:41:00,
2013-06-05 07:44:00,70.5,66.1,30.12,WSW,254,1.0,4.0,86,0.00,,,0.00,Wunderground v.1.15,2013-06-05 11:44:00,
2013-06-05 07:46:00,70.9,66.5,30.12,WSW,248,1.0,-999.0,86,0.00,,,0.44,Wunderground v.1.15,2013-06-05 11:46:00,
2013-06-05 07:50:00,70.7,66.3,30.12,WSW,247,1.0,1.0,86,0.00,,,0.00,Wunderground v.1.15,2013-06-05 11:50:00,
2013-06-05 07:51:00,70.9,66.5,30.12,WSW,248,1.0,-999.0,86,0.00,,,0.44,Wunderground v.1.15,2013-06-05 11:51:00,
2013-06-05 07:56:00,70.8,66.4,30.12,WNW,297,1.0,1.0,86,0.00,,,0.00,Wunderground v.1.15,2013-06-05 11:56:00,
2013-06-05 08:01:00,70.9,66.5,30.12,WSW,248,1.0,-999.0,86,0.00,,,0.44,Wunderground v.1.15,2013-06-05 12:01:00,
2013-06-05 08:02:00,70.9,66.5,30.12,WSW,255,1.0,1.0,86,0.00,,,0.00,Wunderground v.1.15,2013-06-05 12:02:00,
2013-06-05 08:06:00,70.9,66.5,30.12,WSW,248,1.0,-999.0,86,0.00,,,0.44,Wunderground v.1.15,2013-06-05 12:06:00,
2013-06-05 08:08:00,70.8,66.4,30.13,SW,225,1.0,1.0,86,0.00,,,0.00,Wunderground v.1.15,2013-06-05 12:08:00,
2013-06-05 08:11:00,70.9,66.5,30.12,WSW,248,1.0,-999.0,86,0.00,,,0.44,Wunderground v.1.15,2013-06-05 12:11:00,
2013-06-05 08:14:00,70.8,66.4,30.12,West,270,1.0,1.0,86,0.00,,,0.00,Wunderground v.1.15,2013-06-05 12:14:00,
2013-06-05 08:16:00,70.6,66.2,30.13,West,270,0.0,-999.0,86,0.00,,,0.44,Wunderground v.1.15,2013-06-05 12:16:00,
2013-06-05 08:20:00,70.7,66.3,30.12,West,275,1.0,1.0,86,0.00,,,0.00,Wunderground v.1.15,2013-06-05 12:20:00,
2013-06-05 08:21:00,70.6,66.2,30.13,West,270,0.0,-999.0,86,0.00,,,0.44,Wunderground v.1.15,2013-06-05 12:21:00,
2013-06-05 08:26:00,70.7,66.3,30.13,West,271,1.0,1.0,86,0.00,,,0.00,Wunderground v.1.15,2013-06-05 12:26:00,
2013-06-05 08:31:00,70.6,66.2,30.13,West,270,0.0,-999.0,86,0.00,,,0.44,Wunderground v.1.15,2013-06-05 12:31:00,
2013-06-05 08:32:00,70.6,66.2,30.13,SSW,193,0.0,0.0,86,0.00,,,0.00,Wunderground v.1.15,2013-06-05 12:32:00,
2013-06-05 08:36:00,70.6,66.2,30.13,West,270,0.0,-999.0,86,0.00,,,0.44,Wunderground v.1.15,2013-06-05 12:36:00,
2013-06-05 08:38:00,70.6,66.2,30.13,South,174,0.0,0.0,86,0.00,,,0.00,Wunderground v.1.15,2013-06-05 12:38:00,
2013-06-05 08:41:00,70.6,66.2,30.13,West,270,0.0,-999.0,86,0.00,,,0.44,Wunderground v.1.15,2013-06-05 12:41:00,
2013-06-05 08:44:00,70.7,66.3,30.13,WSW,244,0.0,0.0,86,0.00,,,0.00,Wunderground v.1.15,2013-06-05 12:44:00,
2013-06-05 08:46:00,71.0,66.6,30.13,SW,225,0.0,-999.0,86,0.00,,,0.44,Wunderground v.1.15,2013-06-05 12:46:00,
2013-06-05 08:50:00,70.8,66.7,30.13,WNW,287,0.0,0.0,87,0.00,,,0.00,Wunderground v.1.15,2013-06-05 12:50:00,
2013-06-05 08:51:00,71.0,66.6,30.13,SW,225,0.0,-999.0,86,0.00,,,0.44,Wunderground v.1.15,2013-06-05 12:51:00,
2013-06-05 08:56:00,71.0,66.6,30.13,WSW,252,0.0,3.0,86,0.00,,,0.00,Wunderground v.1.15,2013-06-05 12:56:00,
2013-06-05 09:01:00,71.0,66.6,30.13,SW,225,0.0,-999.0,86,0.00,,,0.44,Wunderground v.1.15,2013-06-05 13:01:00,
2013-06-05 09:02:00,71.0,66.6,30.13,West,261,1.0,1.0,86,0.00,,,0.00,Wunderground v.1.15,2013-06-05 13:02:00,
2013-06-05 09:06:00,71.0,66.6,30.13,SW,225,0.0,-999.0,86,0.00,,,0.44,Wunderground v.1.15,2013-06-05 13:06:00,
2013-06-05 09:08:00,71.0,66.6,30.13,WSW,251,1.0,1.0,86,0.00,,,0.00,Wunderground v.1.15,2013-06-05 13:08:00,
2013-06-05 09:11:00,71.0,66.6,30.13,SW,225,0.0,-999.0,86,0.00,,,0.44,Wunderground v.1.15,2013-06-05 13:11:00,
2013-06-05 09:14:00,71.1,66.7,30.13,West,270,2.0,6.0,86,0.00,,,0.00,Wunderground v.1.15,2013-06-05 13:14:00,
2013-06-05 09:16:00,71.2,67.1,30.13,West,270,1.0,-999.0,87,0.00,,,0.44,Wunderground v.1.15,2013-06-05 13:16:00,
2013-06-05 09:20:00,71.1,67.0,30.13,West,277,1.0,1.0,87,0.00,,,0.00,Wunderground v.1.15,2013-06-05 13:20:00,
2013-06-05 09:21:00,71.2,67.1,30.13,West,270,1.0,-999.0,87,0.00,,,0.44,Wunderground v.1.15,2013-06-05 13:21:00,
2013-06-05 09:26:00,71.2,67.1,30.13,West,270,0.0,1.0,87,0.00,,,0.00,Wunderground v.1.15,2013-06-05 13:26:00,
2013-06-05 09:31:00,71.2,67.1,30.13,West,270,1.0,-999.0,87,0.00,,,0.44,Wunderground v.1.15,2013-06-05 13:31:00,
2013-06-05 09:32:00,71.2,67.1,30.13,ENE,78,0.0,1.0,87,0.00,,,0.00,Wunderground v.1.15,2013-06-05 13:32:00,
2013-06-05 09:36:00,71.2,67.1,30.13,West,270,1.0,-999.0,87,0.00,,,0.44,Wunderground v.1.15,2013-06-05 13:36:00,
2013-06-05 09:38:00,71.3,66.9,30.13,WSW,244,1.0,1.0,86,0.00,,,0.00,Wunderground v.1.15,2013-06-05 13:38:00,
2013-06-05 09:41:00,71.2,67.1,30.13,West,270,1.0,-999.0,87,0.00,,,0.44,Wunderground v.1.15,2013-06-05 13:41:00,
2013-06-05 09:44:00,71.4,67.0,30.13,South,180,0.0,1.0,86,0.00,,,0.00,Wunderground v.1.15,2013-06-05 13:44:00,
2013-06-05 09:46:00,71.4,67.0,30.13,WSW,248,1.0,-999.0,86,0.00,,,0.44,Wunderground v.1.15,2013-06-05 13:46:00,
2013-06-05 09:50:00,71.5,67.1,30.14,WSW,255,1.0,1.0,86,0.00,,,0.00,Wunderground v.1.15,2013-06-05 13:50:00,
2013-06-05 09:51:00,71.4,67.0,30.13,WSW,248,1.0,-999.0,86,0.00,,,0.44,Wunderground v.1.15,2013-06-05 13:51:00,
2013-06-05 09:56:00,71.4,67.0,30.14,South,173,1.0,1.0,86,0.00,,,0.00,Wunderground v.1.15,2013-06-05 13:56:00,
2013-06-05 10:01:00,71.4,67.0,30.13,WSW,248,1.0,-999.0,86,0.00,,,0.44,Wunderground v.1.15,2013-06-05 14:01:00,
2013-06-05 10:02:00,71.4,67.0,30.13,South,182,1.0,1.0,86,0.00,,,0.00,Wunderground v.1.15,2013-06-05 14:02:00,
2013-06-05 10:06:00,71.4,67.0,30.13,WSW,248,1.0,-999.0,86,0.00,,,0.44,Wunderground v.1.15,2013-06-05 14:06:00,
2013-06-05 10:08:00,71.5,67.1,30.13,WSW,249,1.0,3.0,86,0.00,,,0.00,Wunderground v.1.15,2013-06-05 14:08:00,
2013-06-05 10:11:00,71.4,67.0,30.13,WSW,248,1.0,-999.0,86,0.00,,,0.44,Wunderground v.1.15,2013-06-05 14:11:00,
2013-06-05 10:14:00,71.9,67.5,30.13,West,279,1.0,1.0,86,0.00,,,0.00,Wunderground v.1.15,2013-06-05 14:14:00,
2013-06-05 10:16:00,72.7,67.9,30.13,West,270,1.0,-999.0,85,0.00,,,0.44,Wunderground v.1.15,2013-06-05 14:16:00,
2013-06-05 10:20:00,72.2,67.8,30.13,SE,144,1.0,2.0,86,0.00,,,0.00,Wunderground v.1.15,2013-06-05 14:20:00,
2013-06-05 10:21:00,72.7,67.9,30.13,West,270,1.0,-999.0,85,0.00,,,0.44,Wunderground v.1.15,2013-06-05 14:21:00,
2013-06-05 10:26:00,72.6,67.8,30.13,West,264,1.0,2.0,85,0.00,,,0.00,Wunderground v.1.15,2013-06-05 14:26:00,
2013-06-05 10:31:00,72.7,67.9,30.13,West,270,1.0,-999.0,85,0.00,,,0.44,Wunderground v.1.15,2013-06-05 14:31:00,
2013-06-05 10:32:00,72.8,68.0,30.13,SSE,162,1.0,1.0,85,0.00,,,0.00,Wunderground v.1.15,2013-06-05 14:32:00,
2013-06-05 10:36:00,72.7,67.9,30.13,West,270,1.0,-999.0,85,0.00,,,0.44,Wunderground v.1.15,2013-06-05 14:36:00,
2013-06-05 10:38:00,72.9,67.8,30.13,WSW,257,1.0,2.0,84,0.00,,,0.00,Wunderground v.1.15,2013-06-05 14:38:00,
2013-06-05 10:41:00,72.7,67.9,30.13,West,270,1.0,-999.0,85,0.00,,,0.44,Wunderground v.1.15,2013-06-05 14:41:00,
2013-06-05 10:44:00,73.0,67.9,30.13,SSE,155,1.0,2.0,84,0.00,,,0.00,Wunderground v.1.15,2013-06-05 14:44:00,
2013-06-05 10:46:00,73.4,68.6,30.13,WSW,248,1.0,-999.0,85,0.00,,,0.44,Wunderground v.1.15,2013-06-05 14:46:00,
2013-06-05 10:50:00,73.1,68.0,30.13,West,270,1.0,1.0,84,0.00,,,0.00,Wunderground v.1.15,2013-06-05 14:50:00,
2013-06-05 10:51:00,73.4,68.6,30.13,WSW,248,1.0,-999.0,85,0.00,,,0.44,Wunderground v.1.15,2013-06-05 14:51:00,
2013-06-05 10:56:00,73.1,68.0,30.13,SSE,161,1.0,2.0,84,0.00,,,0.00,Wunderground v.1.15,2013-06-05 14:56:00,
2013-06-05 11:01:00,73.4,68.6,30.13,WSW,248,1.0,-999.0,85,0.00,,,0.44,Wunderground v.1.15,2013-06-05 15:01:00,
2013-06-05 11:02:00,73.5,68.7,30.13,WSW,249,1.0,3.0,85,0.00,,,0.00,Wunderground v.1.15,2013-06-05 15:02:00,
2013-06-05 11:06:00,73.4,68.6,30.13,WSW,248,1.0,-999.0,85,0.00,,,0.44,Wunderground v.1.15,2013-06-05 15:06:00,
2013-06-05 11:08:00,74.1,69.3,30.13,West,267,1.0,3.0,85,0.00,,,0.00,Wunderground v.1.15,2013-06-05 15:08:00,
2013-06-05 11:11:00,73.4,68.6,30.13,WSW,248,1.0,-999.0,85,0.00,,,0.44,Wunderground v.1.15,2013-06-05 15:11:00,
2013-06-05 11:14:00,74.3,68.4,30.13,SSE,158,1.0,2.0,82,0.00,,,0.00,Wunderground v.1.15,2013-06-05 15:14:00,
2013-06-05 11:16:00,73.7,68.2,30.12,West,270,1.0,-999.0,83,0.00,,,0.44,Wunderground v.1.15,2013-06-05 15:16:00,
2013-06-05 11:20:00,74.0,68.5,30.13,West,270,2.0,2.0,83,0.00,,,0.00,Wunderground v.1.15,2013-06-05 15:20:00,
2013-06-05 11:21:00,73.7,68.2,30.12,West,270,1.0,-999.0,83,0.00,,,0.44,Wunderground v.1.15,2013-06-05 15:21:00,
2013-06-05 11:26:00,73.8,68.3,30.12,WNW,285,1.0,2.0,83,0.00,,,0.00,Wunderground v.1.15,2013-06-05 15:26:00,
2013-06-05 11:31:00,73.7,68.2,30.12,West,270,1.0,-999.0,83,0.00,,,0.44,Wunderground v.1.15,2013-06-05 15:31:00,
2013-06-05 11:32:00,73.7,68.6,30.13,SSW,200,1.0,2.0,84,0.00,,,0.00,Wunderground v.1.15,2013-06-05 15:32:00,
2013-06-05 11:36:00,73.7,68.2,30.12,West,270,1.0,-999.0,83,0.00,,,0.44,Wunderground v.1.15,2013-06-05 15:36:00,
2013-06-05 11:38:00,73.6,68.1,30.12,West,279,1.0,3.0,83,0.00,,,0.00,Wunderground v.1.15,2013-06-05 15:38:00,
2013-06-05 11:41:00,73.7,68.2,30.12,West,270,1.0,-999.0,83,0.00,,,0.44,Wunderground v.1.15,2013-06-05 15:41:00,
2013-06-05 11:44:00,73.5,68.4,30.12,WNW,287,1.0,3.0,84,0.00,,,0.00,Wunderground v.1.15,2013-06-05 15:44:00,
2013-06-05 11:46:00,73.9,68.8,30.12,West,270,1.0,-999.0,84,0.00,,,0.44,Wunderground v.1.15,2013-06-05 15:46:00,
2013-06-05 11:50:00,73.7,68.6,30.12,SE,139,1.0,2.0,84,0.00,,,0.00,Wunderground v.1.15,2013-06-05 15:50:00,
2013-06-05 11:51:00,73.9,68.8,30.12,West,270,1.0,-999.0,84,0.00,,,0.44,Wunderground v.1.15,2013-06-05 15:51:00,
2013-06-05 11:56:00,73.7,68.6,30.12,SE,144,1.0,3.0,84,0.00,,,0.00,Wunderground v.1.15,2013-06-05 15:56:00,
2013-06-05 12:01:00,73.9,68.8,30.12,West,270,1.0,-999.0,84,0.00,,,0.44,Wunderground v.1.15,2013-06-05 16:01:00,
2013-06-05 12:02:00,73.9,68.8,30.12,South,174,1.0,1.0,84,0.00,,,0.00,Wunderground v.1.15,2013-06-05 16:02:00,
2013-06-05 12:06:00,73.9,68.8,30.12,West,270,1.0,-999.0,84,0.00,,,0.44,Wunderground v.1.15,2013-06-05 16:06:00,
2013-06-05 12:08:00,73.9,68.8,30.12,SSE,153,1.0,2.0,84,0.00,,,0.00,Wunderground v.1.15,2013-06-05 16:08:00,
2013-06-05 12:11:00,73.9,68.8,30.12,West,270,1.0,-999.0,84,0.00,,,0.44,Wunderground v.1.15,2013-06-05 16:11:00,
2013-06-05 12:14:00,73.8,68.3,30.12,West,263,1.0,2.0,83,0.00,,,0.00,Wunderground v.1.15,2013-06-05 16:14:00,
2013-06-05 12:16:00,73.8,68.3,30.12,SE,135,1.0,-999.0,83,0.00,,,0.44,Wunderground v.1.15,2013-06-05 16:16:00,
2013-06-05 12:20:00,74.0,68.9,30.12,West,259,1.0,1.0,84,0.00,,,0.00,Wunderground v.1.15,2013-06-05 16:20:00,
2013-06-05 12:21:00,73.8,68.3,30.12,SE,135,1.0,-999.0,83,0.00,,,0.44,Wunderground v.1.15,2013-06-05 16:21:00,
2013-06-05 12:26:00,74.0,68.5,30.12,SE,125,1.0,2.0,83,0.00,,,0.00,Wunderground v.1.15,2013-06-05 16:26:00,
2013-06-05 12:31:00,73.8,68.3,30.12,SE,135,1.0,-999.0,83,0.00,,,0.44,Wunderground v.1.15,2013-06-05 16:31:00,
2013-06-05 12:32:00,73.8,68.3,30.11,SSE,165,1.0,3.0,83,0.00,,,0.00,Wunderground v.1.15,2013-06-05 16:32:00,
2013-06-05 12:36:00,73.8,68.3,30.12,SE,135,1.0,-999.0,83,0.00,,,0.44,Wunderground v.1.15,2013-06-05 16:36:00,
2013-06-05 12:38:00,73.6,68.5,30.11,South,186,1.0,3.0,84,0.00,,,0.00,Wunderground v.1.15,2013-06-05 16:38:00,
2013-06-05 12:41:00,73.8,68.3,30.12,SE,135,1.0,-999.0,83,0.00,,,0.44,Wunderground v.1.15,2013-06-05 16:41:00,
2013-06-05 12:44:00,73.6,68.1,30.11,SSW,205,1.0,1.0,83,0.00,,,0.00,Wunderground v.1.15,2013-06-05 16:44:00,
2013-06-05 12:46:00,73.8,68.7,30.12,SW,225,1.0,-999.0,84,0.00,,,0.44,Wunderground v.1.15,2013-06-05 16:46:00,
2013-06-05 12:50:00,73.8,68.7,30.12,SSW,210,1.0,1.0,84,0.00,,,0.00,Wunderground v.1.15,2013-06-05 16:50:00,
2013-06-05 12:51:00,73.8,68.7,30.12,SW,225,1.0,-999.0,84,0.00,,,0.44,Wunderground v.1.15,2013-06-05 16:51:00,
2013-06-05 12:56:00,73.8,68.7,30.12,South,183,0.0,1.0,84,0.00,,,0.00,Wunderground v.1.15,2013-06-05 16:56:00,
2013-06-05 13:01:00,73.8,68.7,30.12,SW,225,1.0,-999.0,84,0.00,,,0.44,Wunderground v.1.15,2013-06-05 17:01:00,
2013-06-05 13:02:00,73.8,68.7,30.12,SW,235,0.0,1.0,84,0.00,,,0.00,Wunderground v.1.15,2013-06-05 17:02:00,
2013-06-05 13:06:00,73.8,68.7,30.12,SW,225,1.0,-999.0,84,0.00,,,0.44,Wunderground v.1.15,2013-06-05 17:06:00,
2013-06-05 13:08:00,73.8,68.7,30.12,SSW,210,0.0,2.0,84,0.00,,,0.00,Wunderground v.1.15,2013-06-05 17:08:00,
2013-06-05 13:11:00,73.8,68.7,30.12,SW,225,1.0,-999.0,84,0.00,,,0.44,Wunderground v.1.15,2013-06-05 17:11:00,
2013-06-05 13:14:00,73.8,68.7,30.11,West,263,0.0,2.0,84,0.00,,,0.00,Wunderground v.1.15,2013-06-05 17:14:00,
2013-06-05 13:16:00,74.4,68.5,30.11,WSW,248,1.0,-999.0,82,0.00,,,0.44,Wunderground v.1.15,2013-06-05 17:16:00,
2013-06-05 13:20:00,74.0,68.5,30.11,WSW,241,1.0,2.0,83,0.00,,,0.00,Wunderground v.1.15,2013-06-05 17:20:00,
2013-06-05 13:21:00,74.4,68.5,30.11,WSW,248,1.0,-999.0,82,0.00,,,0.44,Wunderground v.1.15,2013-06-05 17:21:00,
2013-06-05 13:26:00,74.3,68.8,30.11,South,174,1.0,2.0,83,0.00,,,0.00,Wunderground v.1.15,2013-06-05 17:26:00,
2013-06-05 13:31:00,74.4,68.5,30.11,WSW,248,1.0,-999.0,82,0.00,,,0.44,Wunderground v.1.15,2013-06-05 17:31:00,
2013-06-05 13:32:00,74.4,68.5,30.11,WSW,240,1.0,3.0,82,0.00,,,0.00,Wunderground v.1.15,2013-06-05 17:32:00,
2013-06-05 13:36:00,74.4,68.5,30.11,WSW,248,1.0,-999.0,82,0.00,,,0.44,Wunderground v.1.15,2013-06-05 17:36:00,
2013-06-05 13:38:00,74.5,68.6,30.11,West,269,2.0,3.0,82,0.00,,,0.00,Wunderground v.1.15,2013-06-05 17:38:00,
2013-06-05 13:41:00,74.4,68.5,30.11,WSW,248,1.0,-999.0,82,0.00,,,0.44,Wunderground v.1.15,2013-06-05 17:41:00,
2013-06-05 13:44:00,75.1,69.2,30.10,SE,134,1.0,1.0,82,0.00,,,0.00,Wunderground v.1.15,2013-06-05 17:44:00,
2013-06-05 13:46:00,77.7,70.3,30.09,West,270,1.0,-999.0,78,0.00,,,0.44,Wunderground v.1.15,2013-06-05 17:46:00,
2013-06-05 13:50:00,76.1,69.5,30.10,ESE,123,1.0,1.0,80,0.00,,,0.00,Wunderground v.1.15,2013-06-05 17:50:00,
2013-06-05 13:51:00,77.7,70.3,30.09,West,270,1.0,-999.0,78,0.00,,,0.44,Wunderground v.1.15,2013-06-05 17:51:00,
2013-06-05 13:56:00,77.3,71.0,30.10,West,274,1.0,1.0,81,0.00,,,0.00,Wunderground v.1.15,2013-06-05 17:56:00,
2013-06-05 14:01:00,77.7,70.3,30.09,West,270,1.0,-999.0,78,0.00,,,0.44,Wunderground v.1.15,2013-06-05 18:01:00,
2013-06-05 14:02:00,77.7,70.3,30.09,South,169,1.0,3.0,78,0.00,,,0.00,Wunderground v.1.15,2013-06-05 18:02:00,
2013-06-05 14:06:00,77.7,70.3,30.09,West,270,1.0,-999.0,78,0.00,,,0.44,Wunderground v.1.15,2013-06-05 18:06:00,
2013-06-05 14:08:00,77.7,70.3,30.09,WSW,257,2.0,3.0,78,0.00,,,0.00,Wunderground v.1.15,2013-06-05 18:08:00,
2013-06-05 14:11:00,77.7,70.3,30.09,West,270,1.0,-999.0,78,0.00,,,0.44,Wunderground v.1.15,2013-06-05 18:11:00,
2013-06-05 14:14:00,77.8,70.4,30.09,WSW,239,1.0,3.0,78,0.00,,,0.00,Wunderground v.1.15,2013-06-05 18:14:00,
2013-06-05 14:16:00,78.8,71.0,30.08,WSW,248,1.0,-999.0,77,0.00,,,0.44,Wunderground v.1.15,2013-06-05 18:16:00,
2013-06-05 14:20:00,78.2,70.8,30.08,South,186,1.0,1.0,78,0.00,,,0.00,Wunderground v.1.15,2013-06-05 18:20:00,
2013-06-05 14:21:00,78.8,71.0,30.08,WSW,248,1.0,-999.0,77,0.00,,,0.44,Wunderground v.1.15,2013-06-05 18:21:00,
2013-06-05 14:26:00,78.8,71.7,30.08,SW,218,1.0,4.0,79,0.00,,,0.00,Wunderground v.1.15,2013-06-05 18:26:00,
2013-06-05 14:31:00,78.8,71.0,30.08,WSW,248,1.0,-999.0,77,0.00,,,0.44,Wunderground v.1.15,2013-06-05 18:31:00,
2013-06-05 14:32:00,78.8,70.6,30.08,South,180,2.0,2.0,76,0.00,,,0.00,Wunderground v.1.15,2013-06-05 18:32:00,
2013-06-05 14:36:00,78.8,71.0,30.08,WSW,248,1.0,-999.0,77,0.00,,,0.44,Wunderground v.1.15,2013-06-05 18:36:00,
2013-06-05 14:38:00,78.2,70.0,30.08,SE,146,1.0,2.0,76,0.00,,,0.00,Wunderground v.1.15,2013-06-05 18:38:00,
2013-06-05 14:41:00,78.8,71.0,30.08,WSW,248,1.0,-999.0,77,0.00,,,0.44,Wunderground v.1.15,2013-06-05 18:41:00,
2013-06-05 14:44:00,78.1,70.3,30.07,West,269,2.0,4.0,77,0.00,,,0.00,Wunderground v.1.15,2013-06-05 18:44:00,
2013-06-05 14:46:00,78.5,71.1,30.07,West,270,2.0,-999.0,78,0.00,,,0.44,Wunderground v.1.15,2013-06-05 18:46:00,
2013-06-05 14:50:00,78.6,71.5,30.07,West,276,2.0,2.0,79,0.00,,,0.00,Wunderground v.1.15,2013-06-05 18:50:00,
2013-06-05 14:51:00,78.5,71.1,30.07,West,270,2.0,-999.0,78,0.00,,,0.44,Wunderground v.1.15,2013-06-05 18:51:00,
2013-06-05 14:56:00,78.4,70.6,30.07,WSW,255,2.0,3.0,77,0.00,,,0.00,Wunderground v.1.15,2013-06-05 18:56:00,
2013-06-05 15:01:00,78.5,71.1,30.07,West,270,2.0,-999.0,78,0.00,,,0.44,Wunderground v.1.15,2013-06-05 19:01:00,
2013-06-05 15:02:00,78.5,70.7,30.07,WNW,283,1.0,2.0,77,0.00,,,0.00,Wunderground v.1.15,2013-06-05 19:02:00,
2013-06-05 15:06:00,78.5,71.1,30.07,West,270,2.0,-999.0,78,0.00,,,0.44,Wunderground v.1.15,2013-06-05 19:06:00,
2013-06-05 15:08:00,79.1,71.6,30.07,WSW,240,1.0,5.0,78,0.00,,,0.00,Wunderground v.1.15,2013-06-05 19:08:00,
2013-06-05 15:11:00,78.5,71.1,30.07,West,270,2.0,-999.0,78,0.00,,,0.44,Wunderground v.1.15,2013-06-05 19:11:00,
2013-06-05 15:14:00,79.3,71.5,30.07,WSW,256,2.0,3.0,77,0.00,,,0.00,Wunderground v.1.15,2013-06-05 19:14:00,
2013-06-05 15:16:00,80.0,71.8,30.06,West,270,1.0,-999.0,76,0.00,,,0.44,Wunderground v.1.15,2013-06-05 19:16:00,
2013-06-05 15:20:00,79.0,70.8,30.07,SE,135,2.0,2.0,76,0.00,,,0.00,Wunderground v.1.15,2013-06-05 19:20:00,
2013-06-05 15:21:00,80.0,71.8,30.06,West,270,1.0,-999.0,76,0.00,,,0.44,Wunderground v.1.15,2013-06-05 19:21:00,
2013-06-05 15:26:00,79.3,71.5,30.06,WSW,241,2.0,2.0,77,0.00,,,0.00,Wunderground v.1.15,2013-06-05 19:26:00,
2013-06-05 15:31:00,80.0,71.8,30.06,West,270,1.0,-999.0,76,0.00,,,0.44,Wunderground v.1.15,2013-06-05 19:31:00,
2013-06-05 15:32:00,80.1,71.8,30.06,West,270,1.0,1.0,76,0.00,,,0.00,Wunderground v.1.15,2013-06-05 19:32:00,
2013-06-05 15:36:00,80.0,71.8,30.06,West,270,1.0,-999.0,76,0.00,,,0.44,Wunderground v.1.15,2013-06-05 19:36:00,
2013-06-05 15:38:00,79.7,70.3,30.06,SSE,165,1.0,1.0,73,0.00,,,0.00,Wunderground v.1.15,2013-06-05 19:38:00,
2013-06-05 15:41:00,80.0,71.8,30.06,West,270,1.0,-999.0,76,0.00,,,0.44,Wunderground v.1.15,2013-06-05 19:41:00,
2013-06-05 15:44:00,79.4,70.4,30.06,SSE,154,2.0,2.0,74,0.00,,,0.00,Wunderground v.1.15,2013-06-05 19:44:00,
2013-06-05 15:46:00,78.2,70.4,30.05,West,270,1.0,-999.0,77,0.00,,,0.44,Wunderground v.1.15,2013-06-05 19:46:00,
2013-06-05 15:50:00,79.0,70.0,30.06,West,272,2.0,2.0,74,0.00,,,0.00,Wunderground v.1.15,2013-06-05 19:50:00,
2013-06-05 15:51:00,78.2,70.4,30.05,West,270,1.0,-999.0,77,0.00,,,0.44,Wunderground v.1.15,2013-06-05 19:51:00,
2013-06-05 15:56:00,78.5,70.3,30.05,WSW,248,1.0,2.0,76,0.00,,,0.00,Wunderground v.1.15,2013-06-05 19:56:00,
2013-06-05 16:01:00,78.2,70.4,30.05,West,270,1.0,-999.0,77,0.00,,,0.44,Wunderground v.1.15,2013-06-05 20:01:00,
2013-06-05 16:02:00,78.2,70.0,30.05,WSW,256,2.0,2.0,76,0.00,,,0.00,Wunderground v.1.15,2013-06-05 20:02:00,
2013-06-05 16:06:00,78.2,70.4,30.05,West,270,1.0,-999.0,77,0.00,,,0.44,Wunderground v.1.15,2013-06-05 20:06:00,
2013-06-05 16:08:00,78.6,71.2,30.05,NNW,336,1.0,2.0,78,0.00,,,0.00,Wunderground v.1.15,2013-06-05 20:08:00,
2013-06-05 16:11:00,78.2,70.4,30.05,West,270,1.0,-999.0,77,0.00,,,0.44,Wunderground v.1.15,2013-06-05 20:11:00,
2013-06-05 16:14:00,79.3,70.7,30.05,South,172,1.0,2.0,75,0.00,,,0.00,Wunderground v.1.15,2013-06-05 20:14:00,
2013-06-05 16:16:00,79.0,70.8,30.04,WSW,248,1.0,-999.0,76,0.00,,,0.44,Wunderground v.1.15,2013-06-05 20:16:00,
2013-06-05 16:20:00,79.3,71.1,30.05,WSW,238,1.0,2.0,76,0.00,,,0.00,Wunderground v.1.15,2013-06-05 20:20:00,
2013-06-05 16:21:00,79.0,70.8,30.04,WSW,248,1.0,-999.0,76,0.00,,,0.44,Wunderground v.1.15,2013-06-05 20:21:00,
2013-06-05 16:26:00,79.1,70.9,30.05,West,261,1.0,2.0,76,0.00,,,0.00,Wunderground v.1.15,2013-06-05 20:26:00,
2013-06-05 16:31:00,79.0,70.8,30.04,WSW,248,1.0,-999.0,76,0.00,,,0.44,Wunderground v.1.15,2013-06-05 20:31:00,
2013-06-05 16:32:00,79.0,71.2,30.04,NNW,345,1.0,1.0,77,0.00,,,0.00,Wunderground v.1.15,2013-06-05 20:32:00,
2013-06-05 16:36:00,79.0,70.8,30.04,WSW,248,1.0,-999.0,76,0.00,,,0.44,Wunderground v.1.15,2013-06-05 20:36:00,
2013-06-05 16:38:00,78.7,70.1,30.04,South,188,1.0,3.0,75,0.00,,,0.00,Wunderground v.1.15,2013-06-05 20:38:00,
2013-06-05 16:41:00,79.0,70.8,30.04,WSW,248,1.0,-999.0,76,0.00,,,0.44,Wunderground v.1.15,2013-06-05 20:41:00,
2013-06-05 16:44:00,78.5,70.3,30.04,West,266,1.0,2.0,76,0.00,,,0.00,Wunderground v.1.15,2013-06-05 20:44:00,
2013-06-05 16:46:00,79.4,71.2,30.04,West,270,2.0,-999.0,76,0.00,,,0.44,Wunderground v.1.15,2013-06-05 20:46:00,
2013-06-05 16:50:00,78.5,70.3,30.04,SSW,205,1.0,1.0,76,0.00,,,0.00,Wunderground v.1.15,2013-06-05 20:50:00,
2013-06-05 16:51:00,79.4,71.2,30.04,West,270,2.0,-999.0,76,0.00,,,0.44,Wunderground v.1.15,2013-06-05 20:51:00,
2013-06-05 16:56:00,78.8,70.6,30.04,WSW,258,2.0,3.0,76,0.00,,,0.00,Wunderground v.1.15,2013-06-05 20:56:00,
2013-06-05 17:01:00,79.4,71.2,30.04,West,270,2.0,-999.0,76,0.00,,,0.44,Wunderground v.1.15,2013-06-05 21:01:00,
2013-06-05 17:02:00,79.4,70.8,30.04,SSW,200,3.0,3.0,75,0.00,,,0.00,Wunderground v.1.15,2013-06-05 21:02:00,
2013-06-05 17:06:00,79.4,71.2,30.04,West,270,2.0,-999.0,76,0.00,,,0.44,Wunderground v.1.15,2013-06-05 21:06:00,
2013-06-05 17:08:00,79.6,70.6,30.04,WNW,287,2.0,4.0,74,0.00,,,0.00,Wunderground v.1.15,2013-06-05 21:08:00,
2013-06-05 17:11:00,79.4,71.2,30.04,West,270,2.0,-999.0,76,0.00,,,0.44,Wunderground v.1.15,2013-06-05 21:11:00,
2013-06-05 17:14:00,80.4,72.5,30.03,West,262,2.0,4.0,77,0.00,,,0.00,Wunderground v.1.15,2013-06-05 21:14:00,
2013-06-05 17:16:00,80.5,71.0,30.03,West,270,2.0,-999.0,73,0.00,,,0.44,Wunderground v.1.15,2013-06-05 21:16:00,
2013-06-05 17:20:00,80.9,71.4,30.03,West,264,2.0,2.0,73,0.00,,,0.00,Wunderground v.1.15,2013-06-05 21:20:00,
2013-06-05 17:21:00,80.5,71.0,30.03,West,270,2.0,-999.0,73,0.00,,,0.44,Wunderground v.1.15,2013-06-05 21:21:00,
2013-06-05 17:26:00,80.9,71.0,30.03,SSE,159,2.0,6.0,72,0.00,,,0.00,Wunderground v.1.15,2013-06-05 21:26:00,
2013-06-05 17:31:00,80.5,71.0,30.03,West,270,2.0,-999.0,73,0.00,,,0.44,Wunderground v.1.15,2013-06-05 21:31:00,
2013-06-05 17:32:00,80.4,70.9,30.03,West,261,2.0,4.0,73,0.00,,,0.00,Wunderground v.1.15,2013-06-05 21:32:00,
2013-06-05 17:36:00,80.5,71.0,30.03,West,270,2.0,-999.0,73,0.00,,,0.44,Wunderground v.1.15,2013-06-05 21:36:00,
2013-06-05 17:38:00,80.1,71.1,30.04,WNW,295,1.0,4.0,74,0.00,,,0.00,Wunderground v.1.15,2013-06-05 21:38:00,
2013-06-05 17:41:00,80.5,71.0,30.03,West,270,2.0,-999.0,73,0.00,,,0.44,Wunderground v.1.15,2013-06-05 21:41:00,
2013-06-05 17:44:00,80.0,70.6,30.03,West,271,1.0,5.0,73,0.00,,,0.00,Wunderground v.1.15,2013-06-05 21:44:00,
2013-06-05 17:46:00,79.3,69.9,30.03,WSW,248,1.0,-999.0,73,0.00,,,0.44,Wunderground v.1.15,2013-06-05 21:46:00,
2013-06-05 17:50:00,79.8,70.4,30.03,ESE,118,1.0,4.0,73,0.00,,,0.00,Wunderground v.1.15,2013-06-05 21:50:00,
2013-06-05 17:51:00,79.3,69.9,30.03,WSW,248,1.0,-999.0,73,0.00,,,0.44,Wunderground v.1.15,2013-06-05 21:51:00,
2013-06-05 17:56:00,79.7,70.7,30.03,SSE,161,1.0,4.0,74,0.00,,,0.00,Wunderground v.1.15,2013-06-05 21:56:00,
2013-06-05 18:01:00,79.3,69.9,30.03,WSW,248,1.0,-999.0,73,0.00,,,0.44,Wunderground v.1.15,2013-06-05 22:01:00,
2013-06-05 18:02:00,79.2,69.8,30.03,SSE,154,2.0,2.0,73,0.00,,,0.00,Wunderground v.1.15,2013-06-05 22:02:00,
2013-06-05 18:06:00,79.3,69.9,30.03,WSW,248,1.0,-999.0,73,0.00,,,0.44,Wunderground v.1.15,2013-06-05 22:06:00,
2013-06-05 18:08:00,78.4,69.4,30.03,West,279,2.0,3.0,74,0.00,,,0.00,Wunderground v.1.15,2013-06-05 22:08:00,
2013-06-05 18:11:00,79.3,69.9,30.03,WSW,248,1.0,-999.0,73,0.00,,,0.44,Wunderground v.1.15,2013-06-05 22:11:00,
2013-06-05 18:14:00,75.5,69.3,30.04,WNW,301,4.0,6.0,81,0.45,,,0.02,Wunderground v.1.15,2013-06-05 22:14:00,
2013-06-05 18:16:00,71.1,66.7,30.04,WNW,293,3.0,-999.0,86,0.27,,,0.44,Wunderground v.1.15,2013-06-05 22:16:00,
2013-06-05 18:20:00,72.8,68.0,30.04,WNW,283,3.0,3.0,85,1.32,,,0.09,Wunderground v.1.15,2013-06-05 22:20:00,
2013-06-05 18:21:00,71.1,66.7,30.04,WNW,293,3.0,-999.0,86,0.27,,,0.44,Wunderground v.1.15,2013-06-05 22:21:00,
2013-06-05 18:26:00,71.7,67.3,30.04,West,265,2.0,3.0,86,1.25,,,0.19,Wunderground v.1.15,2013-06-05 22:26:00,
2013-06-05 18:31:00,71.1,66.7,30.04,WNW,293,3.0,-999.0,86,0.27,,,0.44,Wunderground v.1.15,2013-06-05 22:31:00,
2013-06-05 18:32:00,71.0,66.9,30.04,WSW,256,1.0,4.0,87,0.93,,,0.28,Wunderground v.1.15,2013-06-05 22:32:00,
2013-06-05 18:36:00,71.1,66.7,30.04,WNW,293,3.0,-999.0,86,0.27,,,0.44,Wunderground v.1.15,2013-06-05 22:36:00,
2013-06-05 18:38:00,70.5,66.4,30.03,WNW,297,2.0,4.0,87,0.68,,,0.36,Wunderground v.1.15,2013-06-05 22:38:00,
2013-06-05 18:41:00,71.1,66.7,30.04,WNW,293,3.0,-999.0,86,0.27,,,0.44,Wunderground v.1.15,2013-06-05 22:41:00,
2013-06-05 18:44:00,70.3,66.2,30.03,West,268,2.0,2.0,87,0.64,,,0.42,Wunderground v.1.15,2013-06-05 22:44:00,
2013-06-05 18:46:00,70.1,66.0,30.02,West,270,1.0,-999.0,87,0.44,,,0.44,Wunderground v.1.15,2013-06-05 22:46:00,
2013-06-05 18:50:00,70.2,66.1,30.03,West,281,1.0,1.0,87,0.17,,,0.44,Wunderground v.1.15,2013-06-05 22:50:00,
2013-06-05 18:51:00,70.1,66.0,30.02,West,270,1.0,-999.0,87,0.44,,,0.44,Wunderground v.1.15,2013-06-05 22:51:00,
2013-06-05 18:56:00,70.1,66.0,30.02,SE,144,1.0,6.0,87,0.06,,,0.44,Wunderground v.1.15,2013-06-05 22:56:00,
2013-06-05 19:01:00,70.1,66.0,30.02,West,270,1.0,-999.0,87,0.44,,,0.44,Wunderground v.1.15,2013-06-05 23:01:00,
2013-06-05 19:02:00,70.1,66.0,30.02,SW,234,0.0,0.0,87,0.04,,,0.44,Wunderground v.1.15,2013-06-05 23:02:00,
2013-06-05 19:06:00,70.1,66.0,30.02,West,270,1.0,-999.0,87,0.44,,,0.44,Wunderground v.1.15,2013-06-05 23:06:00,
2013-06-05 19:08:00,70.1,66.0,30.02,SW,235,0.0,0.0,87,0.00,,,0.44,Wunderground v.1.15,2013-06-05 23:08:00,
2013-06-05 19:11:00,70.1,66.0,30.02,West,270,1.0,-999.0,87,0.44,,,0.44,Wunderground v.1.15,2013-06-05 23:11:00,
2013-06-05 19:14:00,70.1,66.0,30.03,SSW,210,0.0,0.0,87,0.00,,,0.44,Wunderground v.1.15,2013-06-05 23:14:00,
2013-06-05 19:16:00,70.2,66.1,30.04,SW,225,0.0,-999.0,87,0.17,,,0.44,Wunderground v.1.15,2013-06-05 23:16:00,
2013-06-05 19:20:00,70.1,66.0,30.03,SW,229,0.0,0.0,87,0.00,,,0.44,Wunderground v.1.15,2013-06-05 23:20:00,
2013-06-05 19:21:00,70.2,66.1,30.04,SW,225,0.0,-999.0,87,0.17,,,0.44,Wunderground v.1.15,2013-06-05 23:21:00,
2013-06-05 19:26:00,70.1,66.0,30.04,SSW,210,0.0,0.0,87,0.00,,,0.44,Wunderground v.1.15,2013-06-05 23:26:00,
2013-06-05 19:31:00,70.2,66.1,30.04,SW,225,0.0,-999.0,87,0.17,,,0.44,Wunderground v.1.15,2013-06-05 23:31:00,
2013-06-05 19:32:00,70.2,66.1,30.04,SSW,210,0.0,0.0,87,0.00,,,0.44,Wunderground v.1.15,2013-06-05 23:32:00,
2013-06-05 19:36:00,70.2,66.1,30.04,SW,225,0.0,-999.0,87,0.17,,,0.44,Wunderground v.1.15,2013-06-05 23:36:00,
2013-06-05 19:38:00,70.1,66.0,30.04,SW,232,0.0,0.0,87,0.00,,,0.44,Wunderground v.1.15,2013-06-05 23:38:00,
2013-06-05 19:41:00,70.2,66.1,30.04,SW,225,0.0,-999.0,87,0.17,,,0.44,Wunderground v.1.15,2013-06-05 23:41:00,
2013-06-05 19:44:00,70.1,66.0,30.04,SW,232,0.0,0.0,87,0.00,,,0.44,Wunderground v.1.15,2013-06-05 23:44:00,
2013-06-05 19:46:00,70.0,66.0,30.04,SW,225,0.0,-999.0,87,0.00,,,0.44,Wunderground v.1.15,2013-06-05 23:46:00,
2013-06-05 19:50:00,70.1,66.0,30.04,SW,232,0.0,0.0,87,0.00,,,0.44,Wunderground v.1.15,2013-06-05 23:50:00,
2013-06-05 19:51:00,70.0,66.0,30.04,SW,225,0.0,-999.0,87,0.00,,,0.44,Wunderground v.1.15,2013-06-05 23:51:00,
2013-06-05 19:56:00,70.0,66.0,30.04,SW,232,0.0,0.0,87,0.00,,,0.44,Wunderground v.1.15,2013-06-05 23:56:00,
2013-06-05 20:01:00,70.0,66.0,30.04,SW,225,0.0,-999.0,87,0.00,,,0.44,Wunderground v.1.15,2013-06-06 00:01:00,
2013-06-05 20:02:00,69.9,65.9,30.04,SW,232,0.0,0.0,87,0.00,,,0.44,Wunderground v.1.15,2013-06-06 00:02:00,
2013-06-05 20:06:00,70.0,66.0,30.04,SW,225,0.0,-999.0,87,0.00,,,0.44,Wunderground v.1.15,2013-06-06 00:06:00,
2013-06-05 20:08:00,69.9,65.9,30.04,SW,232,0.0,0.0,87,0.00,,,0.44,Wunderground v.1.15,2013-06-06 00:08:00,
2013-06-05 20:11:00,70.0,66.0,30.04,SW,225,0.0,-999.0,87,0.00,,,0.44,Wunderground v.1.15,2013-06-06 00:11:00,
2013-06-05 20:14:00,69.9,65.9,30.04,SW,234,0.0,0.0,87,0.00,,,0.44,Wunderground v.1.15,2013-06-06 00:14:00,
2013-06-05 20:16:00,69.9,65.5,30.04,SW,225,0.0,-999.0,86,0.00,,,0.44,Wunderground v.1.15,2013-06-06 00:16:00,
2013-06-05 20:20:00,69.9,65.9,30.04,SW,234,0.0,0.0,87,0.00,,,0.44,Wunderground v.1.15,2013-06-06 00:20:00,
2013-06-05 20:21:00,69.9,65.5,30.04,SW,225,0.0,-999.0,86,0.00,,,0.44,Wunderground v.1.15,2013-06-06 00:21:00,
2013-06-05 20:26:00,69.9,65.5,30.04,SW,233,0.0,0.0,86,0.00,,,0.44,Wunderground v.1.15,2013-06-06 00:26:00,
2013-06-05 20:31:00,69.9,65.5,30.04,SW,225,0.0,-999.0,86,0.00,,,0.44,Wunderground v.1.15,2013-06-06 00:31:00,
2013-06-05 20:32:00,69.9,65.5,30.04,SW,233,0.0,0.0,86,0.00,,,0.44,Wunderground v.1.15,2013-06-06 00:32:00,
2013-06-05 20:36:00,69.9,65.5,30.04,SW,225,0.0,-999.0,86,0.00,,,0.44,Wunderground v.1.15,2013-06-06 00:36:00,
2013-06-05 20:38:00,69.9,65.5,30.04,SW,233,0.0,0.0,86,0.00,,,0.44,Wunderground v.1.15,2013-06-06 00:38:00,
2013-06-05 20:41:00,69.9,65.5,30.04,SW,225,0.0,-999.0,86,0.00,,,0.44,Wunderground v.1.15,2013-06-06 00:41:00,
2013-06-05 20:44:00,69.9,65.5,30.04,SW,233,0.0,0.0,86,0.00,,,0.44,Wunderground v.1.15,2013-06-06 00:44:00,
2013-06-05 20:46:00,69.8,65.4,30.03,N/A,-737280,0.0,-999.0,86,0.00,,,0.44,Wunderground v.1.15,2013-06-06 00:46:00,
2013-06-05 20:50:00,69.8,65.4,30.03,SW,233,0.0,0.0,86,0.00,,,0.44,Wunderground v.1.15,2013-06-06 00:50:00,
2013-06-05 20:51:00,69.8,65.4,30.03,N/A,-737280,0.0,-999.0,86,0.00,,,0.44,Wunderground v.1.15,2013-06-06 00:51:00,
2013-06-05 20:56:00,69.8,65.4,30.03,SW,233,0.0,0.0,86,0.00,,,0.44,Wunderground v.1.15,2013-06-06 00:56:00,
2013-06-05 21:01:00,69.8,65.4,30.03,N/A,-737280,0.0,-999.0,86,0.00,,,0.44,Wunderground v.1.15,2013-06-06 01:01:00,
2013-06-05 21:02:00,69.8,65.4,30.03,SW,233,0.0,0.0,86,0.00,,,0.44,Wunderground v.1.15,2013-06-06 01:02:00,
2013-06-05 21:06:00,69.8,65.4,30.03,N/A,-737280,0.0,-999.0,86,0.00,,,0.44,Wunderground v.1.15,2013-06-06 01:06:00,
2013-06-05 21:08:00,69.8,65.4,30.03,SW,233,0.0,0.0,86,0.00,,,0.44,Wunderground v.1.15,2013-06-06 01:08:00,
2013-06-05 21:11:00,69.8,65.4,30.03,N/A,-737280,0.0,-999.0,86,0.00,,,0.44,Wunderground v.1.15,2013-06-06 01:11:00,
2013-06-05 21:14:00,69.8,65.4,30.04,SW,233,0.0,0.0,86,0.00,,,0.44,Wunderground v.1.15,2013-06-06 01:14:00,
2013-06-05 21:16:00,70.0,65.6,30.04,N/A,-737280,0.0,-999.0,86,0.00,,,0.44,Wunderground v.1.15,2013-06-06 01:16:00,
2013-06-05 21:20:00,69.9,65.5,30.04,SW,233,0.0,0.0,86,0.00,,,0.44,Wunderground v.1.15,2013-06-06 01:20:00,
2013-06-05 21:21:00,70.0,65.6,30.04,N/A,-737280,0.0,-999.0,86,0.00,,,0.44,Wunderground v.1.15,2013-06-06 01:21:00,
2013-06-05 21:26:00,70.0,65.6,30.04,SW,233,0.0,0.0,86,0.00,,,0.44,Wunderground v.1.15,2013-06-06 01:26:00,
2013-06-05 21:31:00,70.0,65.6,30.04,N/A,-737280,0.0,-999.0,86,0.00,,,0.44,Wunderground v.1.15,2013-06-06 01:31:00,
2013-06-05 21:32:00,70.0,65.6,30.04,SW,233,0.0,0.0,86,0.00,,,0.44,Wunderground v.1.15,2013-06-06 01:32:00,
2013-06-05 21:36:00,70.0,65.6,30.04,N/A,-737280,0.0,-999.0,86,0.00,,,0.44,Wunderground v.1.15,2013-06-06 01:36:00,
2013-06-05 21:38:00,70.0,65.6,30.04,SW,233,0.0,0.0,86,0.00,,,0.44,Wunderground v.1.15,2013-06-06 01:38:00,
2013-06-05 21:41:00,70.0,65.6,30.04,N/A,-737280,0.0,-999.0,86,0.00,,,0.44,Wunderground v.1.15,2013-06-06 01:41:00,
2013-06-05 21:44:00,70.1,65.7,30.04,SW,233,0.0,0.0,86,0.00,,,0.44,Wunderground v.1.15,2013-06-06 01:44:00,
2013-06-05 21:46:00,70.2,65.8,30.04,SW,225,0.0,-999.0,86,0.00,,,0.44,Wunderground v.1.15,2013-06-06 01:46:00,
2013-06-05 21:50:00,70.1,65.7,30.04,SW,233,0.0,0.0,86,0.00,,,0.44,Wunderground v.1.15,2013-06-06 01:50:00,
2013-06-05 21:51:00,70.2,65.8,30.04,SW,225,0.0,-999.0,86,0.00,,,0.44,Wunderground v.1.15,2013-06-06 01:51:00,
2013-06-05 21:56:00,70.2,65.8,30.04,SW,233,0.0,0.0,86,0.00,,,0.44,Wunderground v.1.15,2013-06-06 01:56:00,
2013-06-05 22:01:00,70.2,65.8,30.04,SW,225,0.0,-999.0,86,0.00,,,0.44,Wunderground v.1.15,2013-06-06 02:01:00,
2013-06-05 22:02:00,70.2,65.8,30.05,SW,233,0.0,0.0,86,0.00,,,0.44,Wunderground v.1.15,2013-06-06 02:02:00,
2013-06-05 22:06:00,70.2,65.8,30.04,SW,225,0.0,-999.0,86,0.00,,,0.44,Wunderground v.1.15,2013-06-06 02:06:00,
2013-06-05 22:08:00,70.2,65.8,30.05,SW,233,0.0,0.0,86,0.00,,,0.44,Wunderground v.1.15,2013-06-06 02:08:00,
2013-06-05 22:11:00,70.2,65.8,30.04,SW,225,0.0,-999.0,86,0.00,,,0.44,Wunderground v.1.15,2013-06-06 02:11:00,
2013-06-05 22:14:00,70.3,65.9,30.05,SW,233,0.0,0.0,86,0.00,,,0.44,Wunderground v.1.15,2013-06-06 02:14:00,
2013-06-05 22:16:00,70.3,65.9,30.05,SW,225,0.0,-999.0,86,0.00,,,0.44,Wunderground v.1.15,2013-06-06 02:16:00,
2013-06-05 22:20:00,70.3,65.9,30.05,SW,233,0.0,0.0,86,0.00,,,0.44,Wunderground v.1.15,2013-06-06 02:20:00,
2013-06-05 22:21:00,70.3,65.9,30.05,SW,225,0.0,-999.0,86,0.00,,,0.44,Wunderground v.1.15,2013-06-06 02:21:00,
2013-06-05 22:26:00,70.3,65.9,30.06,SW,233,0.0,0.0,86,0.00,,,0.44,Wunderground v.1.15,2013-06-06 02:26:00,
2013-06-05 22:31:00,70.3,65.9,30.05,SW,225,0.0,-999.0,86,0.00,,,0.44,Wunderground v.1.15,2013-06-06 02:31:00,
2013-06-05 22:32:00,70.3,65.9,30.05,SW,233,0.0,0.0,86,0.00,,,0.44,Wunderground v.1.15,2013-06-06 02:32:00,
2013-06-05 22:36:00,70.3,65.9,30.05,SW,225,0.0,-999.0,86,0.00,,,0.44,Wunderground v.1.15,2013-06-06 02:36:00,
2013-06-05 22:38:00,70.4,66.0,30.05,SW,233,0.0,0.0,86,0.00,,,0.44,Wunderground v.1.15,2013-06-06 02:38:00,
2013-06-05 22:41:00,70.3,65.9,30.05,SW,225,0.0,-999.0,86,0.00,,,0.44,Wunderground v.1.15,2013-06-06 02:41:00,
2013-06-05 22:44:00,70.5,66.1,30.05,SW,233,0.0,0.0,86,0.00,,,0.44,Wunderground v.1.15,2013-06-06 02:44:00,
2013-06-05 22:46:00,70.6,66.2,30.05,SW,225,0.0,-999.0,86,0.00,,,0.44,Wunderground v.1.15,2013-06-06 02:46:00,
2013-06-05 22:50:00,70.5,66.1,30.05,SW,233,0.0,0.0,86,0.00,,,0.44,Wunderground v.1.15,2013-06-06 02:50:00,
2013-06-05 22:51:00,70.6,66.2,30.05,SW,225,0.0,-999.0,86,0.00,,,0.44,Wunderground v.1.15,2013-06-06 02:51:00,
2013-06-05 22:56:00,70.6,66.2,30.05,SW,233,0.0,0.0,86,0.00,,,0.44,Wunderground v.1.15,2013-06-06 02:56:00,
2013-06-05 23:01:00,70.6,66.2,30.05,SW,225,0.0,-999.0,86,0.00,,,0.44,Wunderground v.1.15,2013-06-06 03:01:00,
2013-06-05 23:02:00,70.6,66.2,30.05,SW,233,0.0,0.0,86,0.00,,,0.44,Wunderground v.1.15,2013-06-06 03:02:00,
2013-06-05 23:06:00,70.6,66.2,30.05,SW,225,0.0,-999.0,86,0.00,,,0.44,Wunderground v.1.15,2013-06-06 03:06:00,
2013-06-05 23:08:00,70.6,66.2,30.05,SW,233,0.0,0.0,86,0.00,,,0.44,Wunderground v.1.15,2013-06-06 03:08:00,
2013-06-05 23:11:00,70.6,66.2,30.05,SW,225,0.0,-999.0,86,0.00,,,0.44,Wunderground v.1.15,2013-06-06 03:11:00,
2013-06-05 23:14:00,70.6,66.2,30.04,SW,233,0.0,0.0,86,0.00,,,0.44,Wunderground v.1.15,2013-06-06 03:14:00,
2013-06-05 23:16:00,70.6,66.5,30.03,WSW,248,0.0,-999.0,87,0.00,,,0.44,Wunderground v.1.15,2013-06-06 03:16:00,
2013-06-05 23:20:00,70.6,66.5,30.04,WSW,242,0.0,0.0,87,0.00,,,0.44,Wunderground v.1.15,2013-06-06 03:20:00,
2013-06-05 23:21:00,70.6,66.5,30.03,WSW,248,0.0,-999.0,87,0.00,,,0.44,Wunderground v.1.15,2013-06-06 03:21:00,
2013-06-05 23:26:00,70.6,66.5,30.04,WSW,249,0.0,0.0,87,0.00,,,0.44,Wunderground v.1.15,2013-06-06 03:26:00,
2013-06-05 23:31:00,70.6,66.5,30.03,WSW,248,0.0,-999.0,87,0.00,,,0.44,Wunderground v.1.15,2013-06-06 03:31:00,
2013-06-05 23:32:00,70.6,66.5,30.03,WSW,256,0.0,0.0,87,0.00,,,0.44,Wunderground v.1.15,2013-06-06 03:32:00,
2013-06-05 23:36:00,70.6,66.5,30.03,WSW,248,0.0,-999.0,87,0.00,,,0.44,Wunderground v.1.15,2013-06-06 03:36:00,
2013-06-05 23:38:00,70.5,66.4,30.03,West,263,0.0,3.0,87,0.00,,,0.44,Wunderground v.1.15,2013-06-06 03:38:00,
2013-06-05 23:41:00,70.6,66.5,30.03,WSW,248,0.0,-999.0,87,0.00,,,0.44,Wunderground v.1.15,2013-06-06 03:41:00,
2013-06-05 23:44:00,70.6,66.5,30.03,WNW,287,1.0,1.0,87,0.00,,,0.44,Wunderground v.1.15,2013-06-06 03:44:00,
2013-06-05 23:46:00,70.7,66.6,30.03,West,270,1.0,-999.0,87,0.00,,,0.44,Wunderground v.1.15,2013-06-06 03:46:00,
2013-06-05 23:50:00,70.6,66.5,30.03,WNW,284,1.0,2.0,87,0.00,,,0.44,Wunderground v.1.15,2013-06-06 03:50:00,
2013-06-05 23:51:00,70.7,66.6,30.03,West,270,1.0,-999.0,87,0.00,,,0.44,Wunderground v.1.15,2013-06-06 03:51:00,
2013-06-05 23:56:00,70.7,66.6,30.03,WSW,254,1.0,3.0,87,0.00,,,0.44,Wunderground v.1.15,2013-06-06 03:56:00,